Location: Unspecified
(0.0000°N, 0.0000°E)
Time: 18:31:05
(UTC+02:00)

ISS - All Passes

Search period start: 23 May 2018 00:00
Search period end: 02 June 2018 00:00
Orbit: 402 x 407 km, 51.6° (Epoch: 24 May)

Date Brightness Start Highest point End Pass type
(mag) Time Alt. Az. Time Alt. Az. Time Alt. Az.
23 May - 07:11:07 10° NNW 07:14:16 48° NE 07:17:25 10° SE visible
23 May - 18:45:23 10° S 18:48:17 28° SE 18:51:09 10° ENE daylight
24 May - 06:19:52 10° N 06:22:08 18° NE 06:24:25 10° E visible
24 May - 07:56:44 10° W 07:58:25 13° SW 08:00:07 10° SSW daylight
24 May - 17:55:01 10° SSE 17:56:07 11° SE 17:57:14 10° ESE daylight
24 May - 19:29:51 10° WSW 19:32:24 21° NW 19:34:57 10° N daylight
25 May - 07:03:16 10° WNW 07:06:16 34° SW 07:09:16 10° SSE visible
25 May - 18:37:01 10° SW 18:40:16 61° NW 18:43:30 10° NNE daylight
26 May - 06:10:53 10° NNW 06:14:07 74° NE 06:17:23 10° SE visible
26 May - 17:45:00 10° SSW 17:48:07 41° SE 17:51:13 10° NE daylight
27 May - 05:19:15 10° N 05:21:58 24° NE 05:24:42 10° ESE night (unlit)
27 May - 16:53:51 10° SSE 16:55:56 16° SE 16:58:01 10° E daylight
27 May - 18:30:12 10° W 18:32:12 15° NW 18:34:12 10° NNW daylight
28 May - 06:03:21 10° WNW 06:06:03 24° SW 06:08:46 10° S night (unlit)
28 May - 17:36:55 10° SW 17:40:01 40° NW 17:43:07 10° NNE daylight
29 May - 05:10:38 10° NW 05:13:52 72° SW 05:17:07 10° SSE night (unlit)
29 May - 16:44:36 10° SSW 16:47:50 63° SE 16:51:04 10° NE daylight
30 May - 04:18:40 10° NNW 04:21:41 35° NE 04:24:41 10° ESE night (unlit)
30 May - 15:53:01 10° S 15:55:37 22° SE 15:58:14 10° ENE daylight
30 May - 17:30:57 10° WNW 17:31:54 11° NW 17:32:51 10° NW daylight
31 May - 03:27:45 10° NNE 03:29:27 14° NE 03:31:10 10° E night (unlit)
31 May - 05:03:29 10° W 05:05:43 17° SW 05:07:58 10° S night (unlit)
31 May - 16:36:49 10° WSW 16:39:40 28° NW 16:42:31 10° N daylight
01 Jun - 04:10:21 10° NW 04:13:30 47° SW 04:16:39 10° SSE night (unlit)
01 Jun - 15:44:10 10° SW 15:47:26 86° NW 15:50:43 10° NE daylight
